EJU72M LBSF-EKCH

Flight info

Callsign EJU72M
Flight time 2h 15m
Altitude 34000
Route OGOTA N133 ERDOM DCT OVDOT DCT PITOK/N0455F360 DCT REDSI DCT BABKO DCT BABEN DCT KOLOB DCT ROE M743 TIDVU
Aircraft A320/M-SDE3FGHIRWY/LB1

Departure

Time 2026-05-04 13:50
Airport Sofia Airport (LBSF)

Arrival

Time 2026-05-04 16:06
Airport Copenhagen Kastrup Airport (EKCH)
Time Latitude Longitude Altitude Speed Heading
2026-05-04 13:29 42.69206 23.39760 1745 ft 0 kts 196°
2026-05-04 13:46 42.69201 23.39758 1745 ft 2 kts 196°
2026-05-04 13:46 42.69174 23.39746 1746 ft 7 kts 202°
2026-05-04 13:46 42.69161 23.39667 1748 ft 10 kts 281°
2026-05-04 13:47 42.69187 23.39571 1746 ft 12 kts 313°
2026-05-04 13:47 42.69269 23.39559 1749 ft 12 kts
2026-05-04 13:47 42.69357 23.39571 1750 ft 13 kts
2026-05-04 13:47 42.69450 23.39577 1752 ft 14 kts
2026-05-04 13:48 42.69547 23.39581 1752 ft 14 kts
2026-05-04 13:48 42.69610 23.39585 1753 ft 8 kts
2026-05-04 13:48 42.69650 23.39590 1751 ft 3 kts
2026-05-04 13:48 42.69663 23.39591 1749 ft 1 kts
2026-05-04 13:49 42.69675 23.39593 1753 ft 4 kts
2026-05-04 13:49 42.69718 23.39600 1751 ft 9 kts 13°
2026-05-04 13:49 42.69768 23.39674 1747 ft 13 kts 79°
2026-05-04 13:49 42.69762 23.39807 1753 ft 18 kts 95°
2026-05-04 13:50 42.69734 23.40275 1750 ft 84 kts 94°
2026-05-04 13:50 42.69674 23.41338 1755 ft 139 kts 95°
2026-05-04 13:50 42.69587 23.42833 1890 ft 169 kts 93°
2026-05-04 13:50 42.69489 23.44428 2540 ft 172 kts 93°
2026-05-04 13:51 42.69367 23.46086 3023 ft 181 kts 95°
2026-05-04 13:51 42.69235 23.47855 3333 ft 198 kts 95°
2026-05-04 13:51 42.69087 23.49815 3529 ft 221 kts 95°
2026-05-04 13:51 42.69033 23.52019 3757 ft 245 kts 81°
2026-05-04 13:52 42.70403 23.56103 5544 ft 238 kts 46°
2026-05-04 13:52 42.71744 23.57488 5937 ft 256 kts 23°
2026-05-04 13:52 42.73538 23.57767 6516 ft 268 kts 351°
2026-05-04 13:53 42.75235 23.56633 7171 ft 281 kts 322°
2026-05-04 13:53 42.76669 23.54824 8029 ft 279 kts 320°
2026-05-04 13:53 42.78058 23.52998 8848 ft 279 kts 320°
2026-05-04 13:54 42.80948 23.49360 10254 ft 287 kts 322°
2026-05-04 13:54 42.82496 23.47494 10480 ft 308 kts 323°
2026-05-04 13:54 42.85977 23.43393 10729 ft 352 kts 323°
2026-05-04 13:55 42.87885 23.41163 10856 ft 371 kts 323°
2026-05-04 13:55 42.92303 23.37229 11365 ft 389 kts 340°
2026-05-04 13:55 42.94875 23.36094 11901 ft 389 kts 350°
2026-05-04 13:56 42.97554 23.35578 12427 ft 389 kts 358°
2026-05-04 13:56 43.00261 23.35248 12954 ft 393 kts 358°
2026-05-04 13:56 43.05752 23.34590 13981 ft 399 kts 358°
2026-05-04 13:57 43.08542 23.34250 14429 ft 403 kts 358°
2026-05-04 13:57 43.11346 23.33905 14855 ft 406 kts 357°
2026-05-04 13:58 43.19861 23.32862 16194 ft 413 kts 357°
2026-05-04 13:58 43.25641 23.32157 17016 ft 419 kts 357°
2026-05-04 13:58 43.28510 23.31808 17426 ft 421 kts 357°
2026-05-04 13:59 43.31433 23.31453 17813 ft 423 kts 357°
2026-05-04 13:59 43.34379 23.31093 18204 ft 426 kts 357°
2026-05-04 13:59 43.40331 23.30349 18857 ft 432 kts 356°
2026-05-04 14:00 43.43338 23.29970 19170 ft 435 kts 356°
2026-05-04 14:00 43.49405 23.29208 19760 ft 440 kts 356°
2026-05-04 14:00 43.52465 23.28696 20036 ft 444 kts 351°
2026-05-04 14:01 43.55496 23.27793 20324 ft 447 kts 349°
2026-05-04 14:01 43.58546 23.26871 20622 ft 449 kts 349°
2026-05-04 14:01 43.64676 23.25029 21179 ft 453 kts 349°
2026-05-04 14:02 43.67725 23.24112 21426 ft 455 kts 349°
2026-05-04 14:02 43.70834 23.23174 21643 ft 459 kts 349°
2026-05-04 14:02 43.73962 23.22227 21871 ft 462 kts 349°
2026-05-04 14:02 43.77107 23.21271 22129 ft 463 kts 348°
2026-05-04 14:03 43.80261 23.20308 22402 ft 465 kts 348°
2026-05-04 14:03 43.83431 23.19342 22646 ft 467 kts 348°
2026-05-04 14:03 43.86611 23.18371 22898 ft 469 kts 348°
2026-05-04 14:03 43.89803 23.17399 23125 ft 471 kts 348°
2026-05-04 14:04 43.96245 23.15449 23557 ft 476 kts 347°
2026-05-04 14:04 43.99483 23.14471 23806 ft 476 kts 347°
2026-05-04 14:04 44.02715 23.13494 24104 ft 475 kts 346°
2026-05-04 14:05 44.09192 23.11508 24587 ft 477 kts 346°
2026-05-04 14:05 44.12439 23.10505 24855 ft 477 kts 346°
2026-05-04 14:05 44.15680 23.09505 25123 ft 477 kts 346°
2026-05-04 14:06 44.18856 23.08515 25264 ft 468 kts 346°
2026-05-04 14:06 44.22016 23.07521 25378 ft 467 kts 346°
2026-05-04 14:06 44.25208 23.06535 25504 ft 472 kts 346°
2026-05-04 14:06 44.28427 23.05554 25669 ft 475 kts 346°
2026-05-04 14:07 44.31663 23.04575 25940 ft 475 kts 347°
2026-05-04 14:07 44.34888 23.03596 26236 ft 475 kts 346°
2026-05-04 14:07 44.38115 23.02608 26509 ft 475 kts 347°
2026-05-04 14:07 44.41328 23.01616 26992 ft 469 kts 347°
2026-05-04 14:08 44.44501 23.00628 27440 ft 466 kts 347°
2026-05-04 14:08 44.47661 22.99634 27810 ft 464 kts 347°
2026-05-04 14:08 44.50812 22.98642 28150 ft 463 kts 347°
2026-05-04 14:08 44.53923 22.97494 28491 ft 462 kts 341°
2026-05-04 14:09 44.59812 22.93920 29131 ft 461 kts 335°
2026-05-04 14:09 44.62728 22.92059 29451 ft 460 kts 335°
2026-05-04 14:10 44.68565 22.88322 30027 ft 461 kts 335°
2026-05-04 14:10 44.71476 22.86450 30310 ft 460 kts 335°
2026-05-04 14:10 44.74351 22.84600 30622 ft 458 kts 335°
2026-05-04 14:10 44.77240 22.82741 30951 ft 456 kts 336°
2026-05-04 14:11 44.80118 22.80888 31299 ft 453 kts 336°
2026-05-04 14:11 44.85817 22.77220 32011 ft 447 kts 336°
2026-05-04 14:11 44.88649 22.75394 32316 ft 446 kts 336°
2026-05-04 14:12 44.91472 22.73568 32598 ft 446 kts 336°
2026-05-04 14:12 44.93339 22.72359 32791 ft 445 kts 336°
2026-05-04 14:12 44.99834 22.68149 33655 ft 437 kts 337°
2026-05-04 14:13 45.02601 22.66355 33832 ft 439 kts 337°
2026-05-04 14:13 45.05382 22.64547 34001 ft 439 kts 337°
2026-05-04 14:13 45.07263 22.63323 34061 ft 440 kts 337°
2026-05-04 14:14 45.12799 22.59714 34077 ft 442 kts 337°
2026-05-04 14:14 45.21185 22.54251 34092 ft 442 kts 337°
2026-05-04 14:15 45.32319 22.46939 34580 ft 439 kts 337°
2026-05-04 14:16 45.37881 22.43282 34891 ft 441 kts 337°
2026-05-04 14:16 45.40666 22.41450 35061 ft 441 kts 336°
2026-05-04 14:17 45.46207 22.37792 35402 ft 441 kts 336°
2026-05-04 14:17 45.48992 22.35950 35571 ft 441 kts 336°
2026-05-04 14:17 45.54571 22.32265 35822 ft 442 kts 336°
2026-05-04 14:18 45.57368 22.30414 35960 ft 443 kts 336°
2026-05-04 14:18 45.62971 22.26688 36098 ft 445 kts 336°
2026-05-04 14:19 45.68597 22.22943 36093 ft 445 kts 336°
2026-05-04 14:19 45.74224 22.19189 36087 ft 446 kts 336°
2026-05-04 14:20 45.79810 22.15461 36092 ft 446 kts 336°
2026-05-04 14:20 45.85423 22.11691 36097 ft 445 kts 336°
2026-05-04 14:21 45.93829 22.06018 36091 ft 445 kts 336°
2026-05-04 14:21 45.99445 22.02238 36098 ft 445 kts 336°
2026-05-04 14:22 46.05063 21.98449 36099 ft 445 kts 336°
2026-05-04 14:22 46.10675 21.94654 36090 ft 445 kts 336°
2026-05-04 14:23 46.19086 21.88934 36099 ft 445 kts 336°
2026-05-04 14:24 46.24688 21.85118 36105 ft 445 kts 336°
2026-05-04 14:24 46.30257 21.81320 36108 ft 445 kts 336°
2026-05-04 14:25 46.35860 21.77489 36100 ft 445 kts 336°
2026-05-04 14:25 46.44263 21.71730 36098 ft 445 kts 336°
2026-05-04 14:26 46.49867 21.67882 36103 ft 445 kts 335°
2026-05-04 14:26 46.55459 21.64025 36106 ft 445 kts 335°
2026-05-04 14:27 46.61047 21.60154 36107 ft 445 kts 335°
2026-05-04 14:27 46.66650 21.56278 36102 ft 445 kts 335°
2026-05-04 14:28 46.72241 21.52403 36099 ft 445 kts 335°
2026-05-04 14:28 46.77822 21.48517 36105 ft 445 kts 335°
2026-05-04 14:29 46.88982 21.40706 36105 ft 444 kts 335°
2026-05-04 14:30 46.94528 21.36826 36107 ft 444 kts 335°
2026-05-04 14:31 47.02888 21.30959 36101 ft 443 kts 335°
2026-05-04 14:32 47.14003 21.23115 36107 ft 443 kts 335°
2026-05-04 14:32 47.19554 21.19190 36100 ft 442 kts 335°
2026-05-04 14:33 47.25070 21.15276 36096 ft 442 kts 335°
2026-05-04 14:33 47.30617 21.11325 36083 ft 442 kts 335°
2026-05-04 14:34 47.36158 21.07376 36092 ft 442 kts 335°
2026-05-04 14:34 47.41690 21.03413 36091 ft 442 kts 335°
2026-05-04 14:35 47.47224 20.99443 36090 ft 442 kts 335°
2026-05-04 14:35 47.52754 20.95481 36086 ft 442 kts 335°
2026-05-04 14:36 47.58246 20.91528 36083 ft 442 kts 335°
2026-05-04 14:36 47.63775 20.87534 36083 ft 442 kts 335°
2026-05-04 14:37 47.69303 20.83540 36082 ft 442 kts 335°
2026-05-04 14:37 47.74838 20.79527 36082 ft 442 kts 335°
2026-05-04 14:38 47.80371 20.75503 36078 ft 442 kts 335°
2026-05-04 14:38 47.83138 20.73490 36078 ft 442 kts 335°
2026-05-04 14:39 47.83391 20.73306 36078 ft 442 kts 335°
2026-05-04 14:39 47.85786 20.71884 36145 ft 440 kts 340°
2026-05-04 14:40 47.94045 20.65931 36049 ft 440 kts 332°
2026-05-04 14:40 47.99442 20.61567 36054 ft 441 kts 333°
2026-05-04 14:41 48.04936 20.57433 36052 ft 442 kts 334°
2026-05-04 14:42 48.15995 20.49402 36064 ft 443 kts 334°
2026-05-04 14:42 48.21253 20.45524 36057 ft 444 kts 334°
2026-05-04 14:43 48.26873 20.41349 36053 ft 444 kts 334°
2026-05-04 14:43 48.32418 20.37214 36056 ft 444 kts 334°
2026-05-04 14:44 48.37882 20.32991 36063 ft 444 kts 332°
2026-05-04 14:44 48.43338 20.28615 36061 ft 444 kts 332°
2026-05-04 14:45 48.48802 20.24222 36053 ft 445 kts 332°
2026-05-04 14:45 48.54281 20.19852 36055 ft 445 kts 332°
2026-05-04 14:46 48.59762 20.15492 36057 ft 445 kts 332°
2026-05-04 14:46 48.65215 20.11151 36071 ft 445 kts 332°
2026-05-04 14:47 48.70686 20.06760 36086 ft 444 kts 332°
2026-05-04 14:47 48.76137 20.02365 36084 ft 443 kts 332°
2026-05-04 14:48 48.81596 19.97961 36058 ft 444 kts 331°
2026-05-04 14:48 48.87028 19.93574 36057 ft 445 kts 331°
2026-05-04 14:49 48.92487 19.89155 36066 ft 445 kts 331°
2026-05-04 14:49 48.97949 19.84720 36054 ft 445 kts 331°
2026-05-04 14:50 49.03413 19.80272 36054 ft 445 kts 331°
2026-05-04 14:50 49.08881 19.75809 36056 ft 445 kts 330°
2026-05-04 14:51 49.14341 19.71343 36055 ft 445 kts 330°
2026-05-04 14:51 49.19802 19.66858 36040 ft 446 kts 330°
2026-05-04 14:52 49.25443 19.62990 36042 ft 448 kts 342°
2026-05-04 14:52 49.31440 19.60329 36040 ft 448 kts 342°
2026-05-04 14:53 49.37430 19.57648 36034 ft 449 kts 342°
2026-05-04 14:53 49.43389 19.54974 36029 ft 448 kts 341°
2026-05-04 14:54 49.49377 19.52277 36018 ft 449 kts 341°
2026-05-04 14:54 49.55378 19.49567 36026 ft 449 kts 341°
2026-05-04 14:55 49.61345 19.46700 36018 ft 448 kts 335°
2026-05-04 14:55 49.66913 19.42432 36022 ft 447 kts 331°
2026-05-04 14:56 49.72456 19.38061 36023 ft 447 kts 331°
2026-05-04 14:56 49.78007 19.33685 36015 ft 448 kts 332°
2026-05-04 14:57 49.83532 19.29323 35996 ft 449 kts 331°
2026-05-04 14:57 49.89114 19.24905 35997 ft 449 kts 331°
2026-05-04 14:58 49.94676 19.20479 35990 ft 450 kts 331°
2026-05-04 14:58 49.99301 19.16784 35990 ft 450 kts 331°
2026-05-04 14:59 50.04872 19.12329 35981 ft 451 kts 331°
2026-05-04 15:00 50.13245 19.05616 35981 ft 451 kts 330°
2026-05-04 15:00 50.18830 19.01115 35978 ft 452 kts 330°
2026-05-04 15:01 50.27234 18.94340 35993 ft 453 kts 330°
2026-05-04 15:01 50.32803 18.89833 35993 ft 453 kts 330°
2026-05-04 15:02 50.38398 18.85296 35993 ft 453 kts 330°
2026-05-04 15:02 50.43994 18.80732 35993 ft 453 kts 330°
2026-05-04 15:03 50.49585 18.76154 35990 ft 453 kts 330°
2026-05-04 15:03 50.55184 18.71571 35984 ft 453 kts 330°
2026-05-04 15:04 50.60742 18.67015 35977 ft 453 kts 330°
2026-05-04 15:04 50.66331 18.62429 35976 ft 452 kts 330°
2026-05-04 15:05 50.71916 18.57815 35970 ft 452 kts 330°
2026-05-04 15:05 50.77461 18.53209 35969 ft 452 kts 330°
2026-05-04 15:06 50.83046 18.48565 35968 ft 452 kts 329°
2026-05-04 15:07 50.91383 18.41637 35970 ft 452 kts 329°
2026-05-04 15:07 50.96954 18.36981 35963 ft 452 kts 329°
2026-05-04 15:08 51.02526 18.32314 35964 ft 452 kts 329°
2026-05-04 15:08 51.08091 18.27632 35966 ft 452 kts 329°
2026-05-04 15:09 51.13623 18.22975 35969 ft 452 kts 329°
2026-05-04 15:09 51.19192 18.18274 35966 ft 451 kts 329°
2026-05-04 15:10 51.27480 18.11246 35962 ft 451 kts 329°
2026-05-04 15:11 51.35794 18.04159 35963 ft 451 kts 329°
2026-05-04 15:11 51.41308 17.99447 35981 ft 451 kts 328°
2026-05-04 15:12 51.46851 17.94706 35977 ft 451 kts 328°
2026-05-04 15:12 51.52395 17.89952 35967 ft 450 kts 328°
2026-05-04 15:13 51.57892 17.85214 35957 ft 450 kts 328°
2026-05-04 15:13 51.63420 17.80446 35956 ft 450 kts 328°
2026-05-04 15:14 51.68935 17.75668 35968 ft 449 kts 328°
2026-05-04 15:14 51.74409 17.70919 35976 ft 449 kts 328°
2026-05-04 15:15 51.79914 17.66138 35970 ft 448 kts 328°
2026-05-04 15:15 51.85406 17.61347 35963 ft 447 kts 327°
2026-05-04 15:16 51.93606 17.54140 35963 ft 447 kts 327°
2026-05-04 15:17 52.01811 17.46928 35959 ft 447 kts 327°
2026-05-04 15:17 52.09961 17.39724 35960 ft 447 kts 327°
2026-05-04 15:18 52.15424 17.34875 35950 ft 447 kts 327°
2026-05-04 15:19 52.23621 17.27574 35947 ft 447 kts 327°
2026-05-04 15:19 52.31824 17.20245 35949 ft 448 kts 327°
2026-05-04 15:20 52.37253 17.15375 35944 ft 448 kts 327°
2026-05-04 15:20 52.42709 17.10473 35958 ft 448 kts 327°
2026-05-04 15:21 52.48181 17.05542 35955 ft 448 kts 327°
2026-05-04 15:22 52.56363 16.98144 35958 ft 448 kts 326°
2026-05-04 15:22 52.64550 16.90687 35951 ft 448 kts 326°
2026-05-04 15:23 52.70008 16.85712 35953 ft 448 kts 326°
2026-05-04 15:23 52.75420 16.80769 35956 ft 448 kts 326°
2026-05-04 15:24 52.86314 16.70756 35963 ft 447 kts 326°
2026-05-04 15:25 52.91749 16.65733 35951 ft 447 kts 326°
2026-05-04 15:26 52.99904 16.58172 35948 ft 447 kts 326°
2026-05-04 15:26 53.08046 16.50577 35947 ft 447 kts 326°
2026-05-04 15:27 53.16159 16.43017 35959 ft 448 kts 325°
2026-05-04 15:28 53.24320 16.35377 35947 ft 448 kts 325°
2026-05-04 15:29 53.32465 16.27689 35946 ft 448 kts 325°
2026-05-04 15:30 53.51462 16.09648 35963 ft 448 kts 324°
2026-05-04 15:31 53.59587 16.01875 35956 ft 448 kts 324°
2026-05-04 15:32 53.73081 15.88885 35975 ft 447 kts 324°
2026-05-04 15:34 53.86562 15.75806 35975 ft 446 kts 324°
2026-05-04 15:34 53.94650 15.67929 35972 ft 447 kts 324°
2026-05-04 15:35 54.02700 15.60042 35985 ft 447 kts 324°
2026-05-04 15:36 54.10784 15.52079 35982 ft 448 kts 324°
2026-05-04 15:36 54.16176 15.46750 35972 ft 448 kts 323°
2026-05-04 15:37 54.18859 15.44091 35766 ft 443 kts 323°
2026-05-04 15:37 54.21521 15.41455 35515 ft 441 kts 323°
2026-05-04 15:37 54.24168 15.38830 35269 ft 439 kts 323°
2026-05-04 15:37 54.26809 15.36206 35019 ft 438 kts 323°
2026-05-04 15:38 54.29446 15.33581 34808 ft 438 kts 322°
2026-05-04 15:38 54.32080 15.30945 34566 ft 438 kts 322°
2026-05-04 15:38 54.34714 15.28304 34323 ft 438 kts 322°
2026-05-04 15:38 54.37343 15.25666 34091 ft 437 kts 322°
2026-05-04 15:39 54.40050 15.23348 33847 ft 445 kts 330°
2026-05-04 15:39 54.42937 15.21397 33558 ft 446 kts 330°
2026-05-04 15:39 54.48721 15.17487 33008 ft 447 kts 330°
2026-05-04 15:40 54.51621 15.15511 32752 ft 448 kts 330°
2026-05-04 15:40 54.54521 15.13528 32476 ft 449 kts 330°
2026-05-04 15:40 54.57437 15.11527 31700 ft 453 kts 330°
2026-05-04 15:40 54.60373 15.09511 30505 ft 453 kts 331°
2026-05-04 15:41 54.63293 15.07516 29208 ft 449 kts 331°
2026-05-04 15:41 54.66181 15.05546 28117 ft 445 kts 331°
2026-05-04 15:41 54.69060 15.03571 27128 ft 446 kts 331°
2026-05-04 15:41 54.71960 15.01573 25978 ft 452 kts 331°
2026-05-04 15:42 54.74903 14.99542 24792 ft 458 kts 331°
2026-05-04 15:42 54.77879 14.97482 23686 ft 462 kts 331°
2026-05-04 15:42 54.80669 14.94961 23144 ft 439 kts 318°
2026-05-04 15:42 54.82893 14.91614 23029 ft 411 kts 306°
2026-05-04 15:43 54.84711 14.87717 22633 ft 424 kts 302°
2026-05-04 15:43 54.86531 14.83633 22066 ft 429 kts 302°
2026-05-04 15:43 54.88329 14.79548 21436 ft 422 kts 302°
2026-05-04 15:43 54.89496 14.76877 21003 ft 417 kts 302°
2026-05-04 15:44 54.91230 14.72885 20373 ft 411 kts 302°
2026-05-04 15:44 54.92940 14.68947 19756 ft 406 kts 302°
2026-05-04 15:44 54.95178 14.63789 18941 ft 400 kts 302°
2026-05-04 15:44 54.96843 14.59952 18354 ft 395 kts 303°
2026-05-04 15:45 54.97961 14.57376 17941 ft 392 kts 303°
2026-05-04 15:45 54.99571 14.53665 17409 ft 386 kts 303°
2026-05-04 15:45 55.01174 14.49968 16882 ft 379 kts 303°
2026-05-04 15:45 55.02765 14.46289 16471 ft 371 kts 303°
2026-05-04 15:46 55.04299 14.42736 16078 ft 363 kts 303°
2026-05-04 15:46 55.05783 14.39292 15700 ft 356 kts 303°
2026-05-04 15:46 55.07258 14.35864 15356 ft 350 kts 303°
2026-05-04 15:46 55.08707 14.32493 14986 ft 344 kts 303°
2026-05-04 15:47 55.10131 14.29175 14618 ft 339 kts 303°
2026-05-04 15:47 55.11531 14.25909 14307 ft 332 kts 302°
2026-05-04 15:47 55.12907 14.22694 13941 ft 327 kts 302°
2026-05-04 15:47 55.14260 14.19526 13572 ft 323 kts 302°
2026-05-04 15:48 55.15598 14.16389 13171 ft 319 kts 302°
2026-05-04 15:48 55.16913 14.13297 12775 ft 315 kts 302°
2026-05-04 15:48 55.19633 14.06884 11992 ft 329 kts 302°
2026-05-04 15:49 55.20987 14.03699 11609 ft 323 kts 302°
2026-05-04 15:49 55.22322 14.00565 11235 ft 318 kts 302°
2026-05-04 15:49 55.23634 13.97481 10867 ft 313 kts 302°
2026-05-04 15:49 55.24906 13.94478 10502 ft 309 kts 302°
2026-05-04 15:50 55.26174 13.91469 10138 ft 305 kts 302°
2026-05-04 15:50 55.27426 13.88499 9772 ft 301 kts 302°
2026-05-04 15:50 55.28668 13.85557 9377 ft 298 kts 302°
2026-05-04 15:50 55.29896 13.82643 8966 ft 295 kts 302°
2026-05-04 15:51 55.31106 13.79762 8588 ft 291 kts 302°
2026-05-04 15:51 55.32301 13.76913 8200 ft 288 kts 302°
2026-05-04 15:51 55.33471 13.74123 7814 ft 276 kts 302°
2026-05-04 15:51 55.34586 13.71477 7442 ft 265 kts 303°
2026-05-04 15:52 55.35675 13.68883 7069 ft 263 kts 303°
2026-05-04 15:52 55.36749 13.66306 6705 ft 261 kts 302°
2026-05-04 15:52 55.37817 13.63745 6333 ft 259 kts 303°
2026-05-04 15:52 55.38878 13.61205 5948 ft 257 kts 303°
2026-05-04 15:53 55.39931 13.58682 5562 ft 255 kts 303°
2026-05-04 15:53 55.40916 13.56169 5185 ft 251 kts 296°
2026-05-04 15:53 55.41559 13.53371 4996 ft 244 kts 285°
2026-05-04 15:53 55.42046 13.50502 5012 ft 245 kts 285°
2026-05-04 15:54 55.42543 13.47637 5007 ft 245 kts 285°
2026-05-04 15:54 55.43041 13.44768 5008 ft 245 kts 285°
2026-05-04 15:54 55.43537 13.41906 5007 ft 245 kts 286°
2026-05-04 15:54 55.44033 13.39032 5008 ft 246 kts 286°
2026-05-04 15:55 55.44530 13.36150 5007 ft 246 kts 286°
2026-05-04 15:55 55.45084 13.33309 4953 ft 247 kts 296°
2026-05-04 15:55 55.46167 13.30980 4695 ft 248 kts 317°
2026-05-04 15:55 55.47498 13.29052 4434 ft 247 kts 317°
2026-05-04 15:56 55.48817 13.27153 4174 ft 241 kts 318°
2026-05-04 15:56 55.50093 13.25317 3911 ft 233 kts 317°
2026-05-04 15:56 55.51332 13.23528 3661 ft 227 kts 317°
2026-05-04 15:56 55.52539 13.21783 3412 ft 222 kts 317°
2026-05-04 15:57 55.53718 13.20071 3156 ft 218 kts 317°
2026-05-04 15:57 55.54876 13.18388 3041 ft 215 kts 318°
2026-05-04 15:57 55.56027 13.16712 3020 ft 214 kts 318°
2026-05-04 15:57 55.57178 13.15037 3026 ft 214 kts 318°
2026-05-04 15:58 55.58328 13.13363 3024 ft 214 kts 317°
2026-05-04 15:58 55.59475 13.11687 3037 ft 214 kts 317°
2026-05-04 15:58 55.60618 13.10012 3036 ft 214 kts 317°
2026-05-04 15:58 55.61763 13.08332 3025 ft 214 kts 317°
2026-05-04 15:59 55.62910 13.06652 3031 ft 214 kts 318°
2026-05-04 15:59 55.64060 13.04967 3027 ft 214 kts 317°
2026-05-04 15:59 55.65206 13.03281 3034 ft 215 kts 318°
2026-05-04 15:59 55.66356 13.01591 3036 ft 215 kts 318°
2026-05-04 16:00 55.67506 12.99905 3036 ft 214 kts 318°
2026-05-04 16:00 55.68640 12.98245 3036 ft 213 kts 317°
2026-05-04 16:00 55.69783 12.96571 3033 ft 213 kts 318°
2026-05-04 16:00 55.70916 12.94898 3031 ft 210 kts 315°
2026-05-04 16:01 55.71698 12.92857 3025 ft 197 kts 291°
2026-05-04 16:01 55.72200 12.90605 2861 ft 197 kts 291°
2026-05-04 16:01 55.72697 12.88346 2594 ft 196 kts 290°
2026-05-04 16:01 55.72960 12.86001 2350 ft 195 kts 271°
2026-05-04 16:02 55.72729 12.83641 2113 ft 195 kts 251°
2026-05-04 16:02 55.72057 12.81655 2050 ft 184 kts 233°
2026-05-04 16:02 55.70260 12.78769 2013 ft 166 kts 227°
2026-05-04 16:03 55.69397 12.77423 1845 ft 164 kts 226°
2026-05-04 16:03 55.68547 12.76098 1639 ft 163 kts 226°
2026-05-04 16:03 55.67700 12.74779 1420 ft 160 kts 227°
2026-05-04 16:03 55.66902 12.73542 1206 ft 147 kts 226°
2026-05-04 16:04 55.66153 12.72376 1013 ft 141 kts 227°
2026-05-04 16:04 55.64671 12.70069 638 ft 146 kts 225°
2026-05-04 16:04 55.63904 12.68896 458 ft 143 kts 224°
2026-05-04 16:05 55.63185 12.67787 266 ft 136 kts 227°
2026-05-04 16:05 55.62485 12.66675 64 ft 136 kts 225°
2026-05-04 16:05 55.61444 12.65037 17 ft 51 kts 220°
2026-05-04 16:06 55.61291 12.64764 18 ft 23 kts 241°
2026-05-04 16:06 55.61183 12.64228 17 ft 14 kts 265°
2026-05-04 16:07 55.61275 12.64121 17 ft 15 kts 15°
2026-05-04 16:07 55.61496 12.64364 19 ft 10 kts 32°
2026-05-04 16:08 55.61558 12.64434 19 ft 15 kts 32°
2026-05-04 16:08 55.61889 12.64511 17 ft 20 kts 349°
2026-05-04 16:09 55.62167 12.64414 16 ft 21 kts 349°
2026-05-04 16:09 55.62442 12.64474 17 ft 11 kts 13°
2026-05-04 16:10 55.62556 12.64537 17 ft 5 kts 22°
2026-05-04 16:11 55.62571 12.64547 17 ft 0 kts 22°